EA4BCR Weather Reports


time (UTC)temp
C
wind
direction
speed
KPH
gust
KPH
rain 1hr
cm
rain 24hr
cm
rain mn
cm
humidity
%
barometer
mb
20260510184058 14 0.0 0.0 0.00 0.00 0.00 10 1012.7
20260510183058 14 0.0 0.0 0.00 0.00 0.00 98 1013.0
20260510182058 15 0.0 0.0 0.00 0.00 0.00 90 1012.6
20260510181058 15 0.0 0.0 0.00 0.00 0.00 95 1012.4
20260510180058 15 0.0 0.0 0.00 0.00 0.00 96 1012.6
20260510175059 14 0.0 0.0 0.00 0.00 0.00 97 1013.0
20260510174058 14 0.0 0.0 0.00 0.00 0.00 96 1012.9
20260510173059 14 0.0 0.0 0.00 0.00 0.00 98 1013.1
20260510172058 15 0.0 0.0 0.00 0.00 0.00 98 1012.8
20260510171058 14 0.0 0.0 0.00 0.00 0.00 98 1013.1
20260510170059 14 0.0 0.0 0.00 0.00 0.00 89 1013.0
20260510165058 16 0.0 0.0 0.00 0.00 0.00 89 1012.1
20260510164059 16 0.0 0.0 0.00 0.00 0.00 91 1012.0
20260510163058 15 0.0 0.0 0.00 0.00 0.00 10 1012.4
20260510162058 13 0.0 0.0 0.00 0.00 0.00 96 1013.0
20260510161058 14 0.0 0.0 0.00 0.00 0.00 94 1013.1
20260510160058 14 0.0 0.0 0.00 0.00 0.00 10 1013.2
20260510155058 13 0.0 0.0 0.00 0.00 0.00 10 1013.7
20260510154058 13 0.0 0.0 0.00 0.00 0.00 10 1013.6
20260510153058 13 0.0 0.0 0.00 0.00 0.00 99 1013.6
20260510152058 13 0.0 0.0 0.00 0.00 0.00 97 1013.2
20260510151058 13 0.0 0.0 0.00 0.00 0.00 10 1013.3
20260510150058 13 0.0 0.0 0.00 0.00 0.00 10 1013.1
20260510145058 15 0.0 0.0 0.00 0.00 0.00 10 1012.5
20260510144058 15 0.0 0.0 0.00 0.00 0.00 10 1012.6
20260510143059 13 0.0 0.0 0.00 0.00 0.00 10 1013.1
20260510142058 13 0.0 0.0 0.00 0.00 0.00 10 1013.3
20260510141058 13 0.0 0.0 0.00 0.00 0.00 10 1013.4
20260510140058 14 0.0 0.0 0.00 0.00 0.00 10 1012.8
20260510135058 14 0.0 0.0 0.00 0.00 0.00 10 1012.5
20260510134058 14 0.0 0.0 0.00 0.00 0.00 10 1012.4
20260510133059 13 0.0 0.0 0.00 0.00 0.00 10 1012.9
20260510132058 15 0.0 0.0 0.00 0.00 0.00 10 1012.3
20260510131058 15 0.0 0.0 0.00 0.00 0.00 10 1012.4
20260510130059 14 0.0 0.0 0.00 0.00 0.00 10 1012.5
20260510125058 14 0.0 0.0 0.00 0.00 0.00 10 1012.5
20260510124058 14 0.0 0.0 0.00 0.00 0.00 10 1012.5
20260510122058 12 0.0 0.0 0.00 0.00 0.00 10 1013.4
20260510121058 14 0.0 0.0 0.00 0.00 0.00 10 1012.7
20260510120058 15 0.0 0.0 0.00 0.00 0.00 10 1012.3
20260510115058 16 0.0 0.0 0.00 0.00 0.00 83 1011.7
20260510114058 16 0.0 0.0 0.00 0.00 0.00 10 1011.5
20260510113058 15 0.0 0.0 0.00 0.00 0.00 10 1012.3
20260510112058 14 0.0 0.0 0.00 0.00 0.00 10 1012.8
20260510111058 14 0.0 0.0 0.00 0.00 0.00 10 1013.1
20260510110058 15 0.0 0.0 0.00 0.00 0.00 10 1012.7
20260510105058 14 0.0 0.0 0.00 0.00 0.00 10 1013.1
20260510104058 14 0.0 0.0 0.00 0.00 0.00 10 1013.2
20260510103058 14 0.0 0.0 0.00 0.00 0.00 10 1013.2
20260510102058 13 0.0 0.0 0.00 0.00 0.00 10 1013.8
20260510101058 13 0.0 0.0 0.00 0.00 0.00 10 1013.8
20260510100058 12 0.0 0.0 0.00 0.00 0.00 10 1014.2
20260510095058 12 0.0 0.0 0.00 0.00 0.00 10 1014.1
20260510094058 13 0.0 0.0 0.00 0.00 0.00 10 1013.6
20260510091058 13 0.0 0.0 0.00 0.00 0.00 10 1013.9
20260510090058 13 0.0 0.0 0.00 0.00 0.00 10 1013.9
20260510085058 12 0.0 0.0 0.00 0.00 0.00 10 1014.3
20260510084058 12 0.0 0.0 0.00 0.00 0.00 10 1014.4
20260510083058 12 0.0 0.0 0.00 0.00 0.00 10 1014.1
20260510082058 12 0.0 0.0 0.00 0.00 0.00 10 1014.1
20260510081058 11 0.0 0.0 0.00 0.00 0.00 10 1014.7
20260510080058 12 0.0 0.0 0.00 0.00 0.00 10 1014.3
20260510075058 12 0.0 0.0 0.00 0.00 0.00 10 1014.5
20260510074058 12 0.0 0.0 0.00 0.00 0.00 10 1014.4
20260510072058 11 0.0 0.0 0.00 0.00 0.00 10 1014.5
20260510071058 12 0.0 0.0 0.00 0.00 0.00 10 1014.3
20260510070058 11 0.0 0.0 0.00 0.00 0.00 10 1014.3
20260510065058 11 0.0 0.0 0.00 0.00 0.00 10 1014.4
20260510064058 11 0.0 0.0 0.00 0.00 0.00 10 1014.5
20260510063058 11 0.0 0.0 0.00 0.00 0.00 10 1014.5
20260510061058 11 0.0 0.0 0.00 0.00 0.00 10 1014.3
20260510054058 10 0.0 0.0 0.00 0.00 0.00 10 1014.5
20260510052058 11 0.0 0.0 0.00 0.00 0.00 10 1014.1
20260510050058 10 0.0 0.0 0.00 0.00 0.00 10 1014.5
20260510045058 11 0.0 0.0 0.00 0.00 0.00 10 1014.0
20260510044058 11 0.0 0.0 0.00 0.00 0.00 10 1013.9
20260510043058 11 0.0 0.0 0.00 0.00 0.00 10 1014.0
20260510042058 11 0.0 0.0 0.00 0.00 0.00 10 1014.0
20260510041058 11 0.0 0.0 0.00 0.00 0.00 10 1014.1
20260510040058 11 0.0 0.0 0.00 0.00 0.00 10 1014.2
20260510035058 11 0.0 0.0 0.00 0.00 0.00 10 1014.1
20260510034058 11 0.0 0.0 0.00 0.00 0.00 10 1014.1
20260510033058 11 0.0 0.0 0.00 0.00 0.00 10 1014.3
20260510032058 11 0.0 0.0 0.00 0.00 0.00 10 1014.4
20260510031058 11 0.0 0.0 0.00 0.00 0.00 10 1014.5
20260510030058 11 0.0 0.0 0.00 0.00 0.00 10 1014.6
20260510024058 11 0.0 0.0 0.00 0.00 0.00 10 1014.3
20260510023058 12 0.0 0.0 0.00 0.00 0.00 10 1014.2
20260510022058 11 0.0 0.0 0.00 0.00 0.00 10 1014.2
20260510021058 12 0.0 0.0 0.00 0.00 0.00 10 1014.2
20260510020058 12 0.0 0.0 0.00 0.00 0.00 10 1014.1
20260510015058 12 0.0 0.0 0.00 0.00 0.00 10 1014.2
20260510014058 12 0.0 0.0 0.00 0.00 0.00 10 1014.1
20260510012058 12 0.0 0.0 0.00 0.00 0.00 10 1014.1
20260510011058 12 0.0 0.0 0.00 0.00 0.00 10 1014.0
20260510010058 12 0.0 0.0 0.00 0.00 0.00 10 1014.0
20260510005058 12 0.0 0.0 0.00 0.00 0.00 10 1014.1
20260510004058 12 0.0 0.0 0.00 0.00 0.00 10 1014.3
20260510002058 12 0.0 0.0 0.00 0.00 0.00 10 1014.4
20260510001058 13 0.0 0.0 0.00 0.00 0.00 10 1014.4
20260510000058 13 0.0 0.0 0.00 0.00 0.00 10 1014.3
20260509235058 13 0.0 0.0 0.00 0.00 0.00 10 1014.5
20260509234058 12 0.0 0.0 0.00 0.00 0.00 10 1014.6
20260509233058 12 0.0 0.0 0.00 0.00 0.00 10 1014.6
20260509232058 12 0.0 0.0 0.00 0.00 0.00 10 1014.7
20260509231058 13 0.0 0.0 0.00 0.00 0.00 10 1014.5
20260509230058 13 0.0 0.0 0.00 0.00 0.00 10 1014.3
20260509225058 13 0.0 0.0 0.00 0.00 0.00 10 1014.4
20260509224058 14 0.0 0.0 0.00 0.00 0.00 10 1014.1
20260509223058 14 0.0 0.0 0.00 0.00 0.00 10 1014.0
20260509222058 13 0.0 0.0 0.00 0.00 0.00 10 1013.9
20260509221058 13 0.0 0.0 0.00 0.00 0.00 10 1014.2
20260509220058 13 0.0 0.0 0.00 0.00 0.00 10 1013.9
20260509215058 13 0.0 0.0 0.00 0.00 0.00 10 1013.9
20260509214059 13 0.0 0.0 0.00 0.00 0.00 10 1013.8
20260509212058 13 0.0 0.0 0.00 0.00 0.00 10 1013.7
20260509211058 13 0.0 0.0 0.00 0.00 0.00 10 1013.6
20260509210058 14 0.0 0.0 0.00 0.00 0.00 10 1013.2
20260509205058 14 0.0 0.0 0.00 0.00 0.00 10 1013.2
20260509204058 14 0.0 0.0 0.00 0.00 0.00 10 1013.1
20260509203058 14 0.0 0.0 0.00 0.00 0.00 10 1013.0
20260509202058 15 0.0 0.0 0.00 0.00 0.00 10 1012.7
20260509201058 15 0.0 0.0 0.00 0.00 0.00 10 1012.4
20260509200058 15 0.0 0.0 0.00 0.00 0.00 10 1012.3
20260509195057 15 0.0 0.0 0.00 0.00 0.00 10 1012.2
20260509194057 15 0.0 0.0 0.00 0.00 0.00 10 1012.0
20260509193058 15 0.0 0.0 0.00 0.00 0.00 10 1011.7
20260509192058 15 0.0 0.0 0.00 0.00 0.00 10 1011.8
20260509191058 15 0.0 0.0 0.00 0.00 0.00 10 1011.6
20260509185057 16 0.0 0.0 0.00 0.00 0.00 10 1010.7